C/2019 K5 ( Young )

Japanese version
Home page
Updated on June 13, 2020

---------------------------------------------------------------------

* Profile

Discovery Date May 25, 2019
Magnitude 17.1 mag
Discoverer David Young (Asteroid Terrestrial-Impact Last Alert System (ATLAS) search program)

* Pictures

* Orbital Elements

Epoch 2019 June 6.0 TT = JDT 2458640.5
T 2019 June 22.74585 TT                                 Rudenko
q   2.0350395            (2000.0)            P               Q
z  +0.0066451      Peri.  174.91393     +0.99067021     +0.13566392
 +/-0.0000018      Node   177.18871     -0.13249034     +0.98101753
e   0.9864769      Incl.   15.31566     -0.03191926     +0.13856375
From 558 observations 2018 June 17-2020 Feb. 27, mean residual 0".5.

* Finding Charts

* Magnitudes Graph

        m1 = 10.0 + 5 log d + 13.5 log r(t - 50)

---------------------------------------------------------------------

The orbital elements are published on M.P.E.C. 2020-F67.
The charts are made with StellaNavigator Ver.10 (AstroArts).
The magnitudes graphs are made with Comet for Windows.

---------------------------------------------------------------------

Copyright(C) Seiichi Yoshida (comet@aerith.net). All rights reserved.